Location: La Vergne
(36.0160°N, 86.5820°W)
Time: 19:51:28
(UTC-05:00)

Daily predictions for brighter satellites

Satellite Brightness Start Highest point End
(mag) Time Altitude Azimuth Time Altitude Azimuth Time Altitude Azimuth
Timation 2 Rocket 4.1 20:09:49 10° NNW 20:16:13 81° ENE 20:22:52 10° SSE
OAO 2 Rocket 4.1 20:13:28 10° W 20:18:17 42° SSW 20:23:00 10° SE
Shenzhou-11 Module 2.2 20:17:41 10° WNW 20:20:45 67° NNE 20:23:48 10° ESE
Envisat 3.3 20:18:21 10° SSE 20:23:13 49° ENE 20:28:07 10° N
Cosmos 990 Rocket 4.0 20:18:40 10° SSW 20:23:52 87° ESE 20:29:08 10° NNE
H-2A ROCKET BODY 2.3 20:25:35 10° SW 20:27:33 23° SSE 20:31:25 10° ESE
Cosmos 1470 Rocket 4.2 20:25:37 10° SSW 20:30:02 64° W 20:34:30 10° N
DNEPR-1 R/B 4.5 20:26:14 10° S 20:31:18 36° ESE 20:35:38 10° NE
Resurs 1-3 3.7 20:27:11 10° SSE 20:31:33 84° WSW 20:35:58 10° NNW
Cosmos 1943 Rocket 3.0 20:27:03 10° SSE 20:31:46 28° ESE 20:36:28 10° NE
Cosmos 1892 2.7 20:28:53 10° S 20:32:42 68° E 20:36:31 10° NNE
Cosmos 1703 Rocket 4.5 20:29:08 10° NNE 20:33:03 30° ENE 20:36:54 10° SE
Cosmos 1125 Rocket 4.2 20:33:13 10° SSE 20:37:51 33° E 20:42:29 10° NE
Cosmos 1315 Rocket 4.4 20:34:51 10° SSW 20:38:38 40° WNW 20:42:30 10° N
CZ-2D R/B 4.2 20:35:18 10° S 20:39:05 51° W 20:42:54 10° NNW
Helios 1B rocket 2.8 20:40:30 10° NNE 20:44:26 43° E 20:48:19 10° S
Cosmos 2084 4.0 20:43:29 10° NNW 20:47:06 38° NE 20:50:04 15° ESE
Cosmos 2263 4.4 20:41:42 10° S 20:47:16 52° ESE 20:52:50 10° NNE
Cosmos 1869 Rocket 3.9 20:44:50 10° SSE 20:48:58 45° E 20:53:06 10° NNE
Lacrosse 4 Rocket 3.5 20:49:12 10° NNE 20:51:58 16° NE 20:54:34 10° E
Cosmos 2369 Rocket 2.2 20:51:21 10° SSW 20:57:00 89° WNW 21:02:43 10° NNE
SJ-11-01 4.3 20:55:12 10° SSE 20:59:55 83° ENE 21:04:39 10° N
YAOGAN 6 2.6 21:00:37 15° SSE 21:03:38 65° ENE 21:07:18 10° N
Cosmos 1606 3.4 21:05:10 10° NNE 21:08:39 34° E 21:10:13 24° SE
Cosmos 2221 Rocket 3.6 21:07:56 10° N 21:12:19 60° E 21:15:20 20° SSE
COSMOS 2455 3.6 21:06:44 10° SW 21:12:37 55° WNW 21:18:32 10° NNE
H-2A R/B 3.6 21:11:05 16° E 21:13:26 22° ENE 21:17:24 10° NNE
Meteor 1-29 2.9 21:11:57 10° NNE 21:15:28 88° E 21:18:56 10° SSW
USA 186 4.3 21:14:01 10° SW 21:15:41 15° W 21:17:26 10° NW
SAR-Lupe-1 4.4 21:14:20 27° SE 21:15:52 46° ENE 21:19:18 10° N
GPS 2-04 Rocket1 2.4 21:13:19 10° W 21:17:04 77° S 21:18:45 30° ESE
Lacrosse 5 rocket 3.2 21:14:44 10° WSW 21:17:54 29° NW 21:21:07 10° NNE
Cosmos 1346 Rocket 4.0 21:14:46 10° NNW 21:18:32 42° W 21:22:19 10° SSW
ATLAS 5 CENTAUR R/B 3.1 21:13:19 10° NNW 21:19:02 42° NE 21:22:52 21° ESE
Helios 1A 3.1 21:15:30 14° S 21:19:05 72° W 21:23:18 10° NNW
Aureole 3 2.6 21:17:41 13° S 21:20:21 80° W 21:23:20 10° N
Cosmos 1634 Rocket 4.2 21:19:45 10° N 21:26:03 75° W 21:32:21 10° S
ERS-1 Rocket 3.0 21:23:37 24° SSE 21:26:39 65° ENE 21:31:39 10° N
OAO 3 Copernicus 4.2 21:22:18 10° WSW 21:27:18 68° S 21:30:29 22° E
Cosmos 1939 Rocket 4.2 21:24:12 10° SSW 21:28:05 39° W 21:31:58 10° NNW
Cosmos 1656 Rocket 4.1 21:25:33 23° SSE 21:28:18 37° ESE 21:33:18 10° NE
Cosmos 1408 2.6 21:28:17 16° S 21:31:07 81° W 21:34:52 10° N
ARGOS 3.5 21:28:52 27° SE 21:31:25 48° ENE 21:36:33 10° N
Nadezhda 4 Rocket 4.4 21:30:13 25° SE 21:33:16 42° E 21:39:00 10° NNE
ISS -0.6 21:32:34 10° WNW 21:34:28 14° NNW 21:36:22 10° N
Meteor 1-27 Rocket 4.1 21:29:36 10° N 21:35:07 47° ENE 21:37:23 31° SE
Meteor 1-10 Rocket 4.3 21:30:45 10° N 21:36:44 86° E 21:40:35 23° S
Terra 3.7 21:37:35 15° ENE 21:38:14 15° ENE 21:40:55 10° NNE
Resurs 01 Rocket 4.5 21:38:12 10° WSW 21:40:02 12° W 21:41:52 10° WNW
Tiangong 2 2.2 21:38:26 10° W 21:41:23 33° SW 21:41:24 33° SSW
Cosmos 1048 Rocket 3.9 21:36:10 10° NNW 21:41:29 75° ENE 21:43:45 35° SSE
Meteor 2-6 Rocket 4.3 21:35:45 10° N 21:41:46 87° E 21:45:24 25° S
USA 215 3.8 21:37:58 22° ESE 21:41:59 49° NE 21:48:16 10° NW
CZ-4B DEB 4.0 21:41:38 25° SW 21:42:39 34° W 21:45:22 10° NNW
Cosmos 1825 3.0 21:45:39 16° SSW 21:48:28 49° W 21:52:09 10° N
Okean 1-7 4.1 21:49:26 10° NNW 21:53:37 43° W 21:56:17 20° SSW
Shenzhou-11 Module 4.4 21:54:50 10° W 21:56:10 16° SW 21:56:10 16° SW
Cosmos 1782 3.8 21:54:21 10° NNW 21:58:08 42° W 21:59:50 26° SW
Cosmos 2279 Rocket 4.2 21:52:23 10° NNW 21:58:37 70° W 22:02:33 24° S
SPOT 5 3.0 21:56:52 42° SSE 21:58:40 75° ENE 22:03:59 10° N
Intercosmos 25 Rocket 4.2 21:52:21 10° N 21:58:41 50° ENE 21:59:26 45° ESE
Milstar 3 3.5 21:51:31 10° WSW 22:02:40 50° S 22:05:32 36° SE
MetOp-A 4.4 22:01:17 31° S 22:03:48 66° WSW 22:09:08 10° NNW
CENTAUR R/B 3.8 21:59:46 10° WSW 22:05:24 41° NW 22:11:46 10° NNE
Cosmos 2251 Rocket 4.4 22:02:28 10° N 22:07:10 33° ENE 22:07:41 32° ENE
Cosmos 2227 Rocket 4.5 22:07:20 10° NE 22:08:17 10° NE 22:09:13 10° ENE
DMSP B5D2-2 4.1 22:05:35 10° NNE 22:10:42 56° E 22:11:06 54° ESE
SPOT 1/Viking Rocket 3.5 22:10:32 56° SE 22:11:33 73° ENE 22:16:45 10° N
Cosmos 1943 Rocket 3.8 22:10:18 10° SW 22:15:20 34° WNW 22:20:22 10° N
Cosmos 1862 4.3 22:14:36 31° SW 22:15:58 42° W 22:19:46 10° N
Cosmos 2219 4.1 22:11:08 10° N 22:16:22 35° ENE 22:17:12 33° E
Cosmos 1733 Rocket 3.4 22:17:37 46° SW 22:18:37 59° W 22:22:54 10° N
Cosmos 1340 4.2 22:22:39 10° NNW 22:25:59 29° W 22:26:25 28° WSW
Nimbus 7 Rocket 4.4 22:22:29 10° N 22:28:22 77° WNW 22:30:55 36° SSW
Lacrosse 4 Rocket 2.1 22:26:38 10° NW 22:30:55 49° WSW 22:30:55 49° WSW
GEOS 3 Rocket 4.4 22:30:20 35° ENE 22:31:04 37° NE 22:35:50 10° NNW
Cosmos 2344 4.2 22:24:57 10° SW 22:32:25 56° NW 22:40:39 10° NNE
Sich 1 Rocket 4.1 22:34:13 53° NNE 22:34:13 53° NNE 22:37:41 10° NNE
ATLAS CENTAUR R/B 2.9 22:39:00 28° NNE 22:39:00 28° NNE 22:40:56 10° NNE
Meteor 2-20 Rocket 4.3 22:39:31 62° S 22:40:38 89° E 22:46:48 10° N
Cosmos 1655 Rocket 4.3 22:42:10 47° E 22:42:10 47° E 22:47:48 10° NNE
Cosmos 1975 Rocket 4.4 22:42:34 10° N 22:45:23 31° NE 22:45:23 31° NE
Cosmos 494 Rocket 4.0 22:44:48 10° NNW 22:49:47 77° WNW 22:49:47 77° WNW
Cosmos 2026 Rocket 3.8 22:51:35 76° ESE 22:51:51 77° E 22:58:06 10° N
Cosmos 1867 3.5 22:46:40 10° NNW 22:51:55 81° N 22:51:55 81° N
CARTOSAT-1 4.3 22:53:20 51° NNW 22:53:20 51° NNW 22:56:36 10° NNW
H-2A R/B 2.9 22:51:42 41° WSW 22:52:29 44° W 22:57:35 10° NNW
Cosmos 1378 Rocket 4.4 22:54:41 10° NNW 22:58:03 50° NNW 22:58:03 50° NNW
Cosmos 2297 Rocket 3.7 22:58:47 10° N 23:03:17 24° ENE 23:03:17 24° ENE
ATLAS 5 CENTAUR R/B 3.5 22:58:10 10° NW 23:03:43 34° WSW 23:04:25 33° SW
H-2A R/B 3.5 23:10:50 33° N 23:10:50 33° N 23:13:11 10° NNW
Cosmos 1428 Rocket 4.5 23:09:24 73° ENE 23:09:24 73° ENE 23:15:24 10° N
Terra 2.8 23:16:28 43° WNW 23:16:28 43° WNW 23:20:09 10° NNW
S3M 4.2 23:13:13 10° N 23:18:37 57° NE 23:18:37 57° NE
USA 215 3.8 23:25:19 43° WSW 23:25:19 43° WSW 23:31:10 10° WNW
BREEZE-M DEB (TANK) 3.6 23:24:46 60° WNW 23:25:24 67° NNW 23:38:05 10° NE
Cosmos 1553 Rocket 4.1 23:30:40 10° N 23:36:24 74° NNW 23:36:24 74° NNW
CZ-2C R/B 3.9 23:42:47 10° NNE 23:45:42 33° NNE 23:45:42 33° NNE
Cosmos 2227 Rocket 2.9 23:47:36 10° NNW 23:51:48 51° N 23:51:48 51° N
